Location: Pinhey's Point
(45.4411°N, 75.9539°W)
Time: 13:49:17
(UTC-04:00)

Iridium 65 - Visible Passes

Search period start: 29 April 2016 00:00
Search period end: 09 May 2016 00:00
Orbit: 776 x 779 km, 86.4° (Epoch: 29 April)

Date Brightness Start Highest point End Pass type
(mag) Time Alt. Az. Time Alt. Az. Time Alt. Az.
29 Apr 6.1 00:17:40 10° N 00:22:02 50° NE 00:22:02 50° NE visible
29 Apr 7.4 01:59:26 10° NW 02:02:30 19° WNW 02:02:30 19° WNW visible
29 Apr 6.7 23:44:28 10° NNE 23:48:40 31° ENE 23:48:40 31° ENE visible
30 Apr 6.7 01:25:11 10° NNW 01:29:09 32° WNW 01:29:09 32° WNW visible
30 Apr 7.3 23:11:40 10° NNE 23:15:19 19° ENE 23:15:20 19° ENE visible
01 May 6.0 00:51:19 10° N 00:55:48 54° NW 00:55:48 54° NW visible
01 May 7.8 22:40:18 10° NE 22:41:19 11° ENE 22:41:58 10° ENE visible
02 May 5.6 00:17:43 10° N 00:22:27 70° NNE 00:22:27 70° NNE visible
02 May 7.7 02:00:24 10° NW 02:02:55 14° WNW 02:02:55 14° WNW visible
02 May 6.1 23:44:20 10° N 23:49:06 44° ENE 23:49:06 44° ENE visible
03 May 7.1 01:25:40 10° NNW 01:29:35 24° WNW 01:29:35 24° WNW visible
03 May 6.8 23:11:16 10° NNE 23:15:37 26° ENE 23:15:46 26° E visible
04 May 6.3 00:51:36 10° NNW 00:56:14 41° WNW 00:56:14 41° WNW visible
04 May 7.4 22:38:45 10° NE 22:41:43 15° ENE 22:42:26 15° E visible
05 May 5.5 00:17:50 10° N 00:22:54 73° WNW 00:22:54 73° WNW visible
05 May 5.6 23:44:20 10° N 23:49:31 63° E 23:49:34 63° E visible
06 May 7.5 01:26:21 10° NW 01:29:40 17° WNW 01:30:03 17° W visible
06 May 6.3 23:11:03 10° NNE 23:15:52 36° E 23:16:15 35° E visible
07 May 6.8 00:51:58 10° NNW 00:56:27 30° W 00:56:44 30° W visible
07 May 7.0 22:38:08 10° NNE 22:42:04 21° ENE 22:42:56 20° E visible
08 May 5.9 00:18:02 10° NNW 00:23:07 52° W 00:23:25 51° W visible
08 May 7.6 22:06:08 10° NE 22:08:07 12° ENE 22:09:38 11° E visible
08 May 5.3 23:44:24 10° N 23:49:39 88° E 23:50:06 75° S visible
